Starlink 11415

operational
NORAD ID: 62592 Int'l Des: 2025-008 Owner: SPXS Country: US Constellation: starlink
LEOCIRCULAR

Starlink 11415について

説明を読み込み中...

リアルタイム位置

3D地球を読み込み中...

次回通過

高度履歴

Altitude vs Time

uPlot chart will show altitude changes over time

軌道要素

1 62592U 25008F 25259.93860775 .00199796 00000-0 15237-2 0 9998
2 62592 42.9983 93.8423 0002102 308.8420 51.2259 15.70835126 39891
Epoch: Sep 16, 2025 • Age: 22 hours

現在のステータス

高度 367.0 km
速度 7.69 km/s
衛星直下点 -40.52°S, 22.57°E
打ち上げ日 Jan 13, 2025
運用期間 0.6 years
タイプ internet

技術仕様

分類 Payload
質量 960.00 kg
乾燥質量 910.00 kg
総質量 960.00 kg
長さ 0.30 m
直径 4.10 m
スパン 29.00 m
形状 Box + pan
製造者 SPXS
バスタイプ Starlink V2MD
フェーズステータス In Orbit
所有者/国 SPXS/US

大規模コンステレーション

Loading constellations...